Year,Month,Day,Hour,Minute,Value (Times are PST for temperature in C)
2014,07,11,00,00,16.90
2014,07,11,00,01,16.90
2014,07,11,00,02,16.90
2014,07,11,00,03,16.90
2014,07,11,00,04,17.00
2014,07,11,00,05,17.00
2014,07,11,00,06,17.00
2014,07,11,00,07,17.00
2014,07,11,00,08,17.00
2014,07,11,00,09,17.10
2014,07,11,00,10,17.10
2014,07,11,00,11,17.10
2014,07,11,00,12,17.00
2014,07,11,00,13,17.00
2014,07,11,00,14,17.10
2014,07,11,00,15,17.10
2014,07,11,00,16,17.10
2014,07,11,00,17,17.10
2014,07,11,00,18,17.10
2014,07,11,00,19,17.20
2014,07,11,00,20,17.20
2014,07,11,00,21,17.20
2014,07,11,00,22,17.20
2014,07,11,00,23,17.20
2014,07,11,00,24,17.20
2014,07,11,00,25,17.20
2014,07,11,00,26,17.20
2014,07,11,00,27,17.20
2014,07,11,00,28,17.20
2014,07,11,00,29,17.20
2014,07,11,00,30,17.20
2014,07,11,00,31,17.20
2014,07,11,00,32,17.20
2014,07,11,00,33,17.20
2014,07,11,00,34,17.20
2014,07,11,00,35,17.20
2014,07,11,00,36,17.20
2014,07,11,00,37,17.10
2014,07,11,00,38,17.10
2014,07,11,00,39,17.10
2014,07,11,00,40,17.10
2014,07,11,00,41,17.00
2014,07,11,00,42,17.00
2014,07,11,00,43,17.00
2014,07,11,00,44,16.90
2014,07,11,00,45,16.90
2014,07,11,00,46,16.80
2014,07,11,00,47,16.80
2014,07,11,00,48,16.80
2014,07,11,00,49,16.70
2014,07,11,00,50,16.70
2014,07,11,00,51,16.70
2014,07,11,00,52,16.70
2014,07,11,00,53,16.60
2014,07,11,00,54,16.60
2014,07,11,00,55,16.50
2014,07,11,00,56,16.40
2014,07,11,00,57,16.40
2014,07,11,00,58,16.40
2014,07,11,00,59,16.30
2014,07,11,01,00,16.30
2014,07,11,01,01,16.20
2014,07,11,01,02,16.20
2014,07,11,01,03,16.20
2014,07,11,01,04,16.30
2014,07,11,01,05,16.30
2014,07,11,01,06,16.30
2014,07,11,01,07,16.30
2014,07,11,01,08,16.30
2014,07,11,01,09,16.30
2014,07,11,01,10,16.30
2014,07,11,01,11,16.40
2014,07,11,01,12,16.40
2014,07,11,01,13,16.40
2014,07,11,01,14,16.40
2014,07,11,01,15,16.50
2014,07,11,01,16,16.60
2014,07,11,01,17,16.70
2014,07,11,01,18,16.70
2014,07,11,01,19,16.70
2014,07,11,01,20,16.70
2014,07,11,01,21,16.80
2014,07,11,01,22,16.80
2014,07,11,01,23,16.80
2014,07,11,01,24,16.80
2014,07,11,01,25,16.80
2014,07,11,01,26,16.80
2014,07,11,01,27,16.80
2014,07,11,01,28,16.70
2014,07,11,01,29,16.70
2014,07,11,01,30,16.70
2014,07,11,01,31,16.70
2014,07,11,01,32,16.70
2014,07,11,01,33,16.60
2014,07,11,01,34,16.60
2014,07,11,01,35,16.40
2014,07,11,01,36,16.40
2014,07,11,01,37,16.40
2014,07,11,01,38,16.40
2014,07,11,01,39,16.40
2014,07,11,01,40,16.40
2014,07,11,01,41,16.30
2014,07,11,01,42,16.30
2014,07,11,01,43,16.30
2014,07,11,01,44,16.30
2014,07,11,01,45,16.30
2014,07,11,01,46,16.30
2014,07,11,01,47,16.40
2014,07,11,01,48,16.40
2014,07,11,01,49,16.40
2014,07,11,01,50,16.40
2014,07,11,01,51,16.40
2014,07,11,01,52,16.40
2014,07,11,01,53,16.40
2014,07,11,01,54,16.40
2014,07,11,01,55,16.40
2014,07,11,01,56,16.40
2014,07,11,01,57,16.50
2014,07,11,01,58,16.60
2014,07,11,01,59,16.60
2014,07,11,02,00,16.60
2014,07,11,02,01,16.60
2014,07,11,02,02,16.70
2014,07,11,02,03,16.60
2014,07,11,02,04,16.60
2014,07,11,02,05,16.60
2014,07,11,02,06,16.70
2014,07,11,02,07,16.70
2014,07,11,02,08,16.70
2014,07,11,02,09,16.70
2014,07,11,02,10,16.70
2014,07,11,02,11,16.70
2014,07,11,02,12,16.70
2014,07,11,02,13,16.70
2014,07,11,02,14,16.80
2014,07,11,02,15,16.80
2014,07,11,02,16,16.90
2014,07,11,02,17,16.90
2014,07,11,02,18,16.90
2014,07,11,02,19,16.90
2014,07,11,02,20,16.90
2014,07,11,02,21,16.90
2014,07,11,02,22,16.90
2014,07,11,02,23,16.90
2014,07,11,02,24,16.90
2014,07,11,02,25,17.00
2014,07,11,02,26,16.90
2014,07,11,02,27,16.90
2014,07,11,02,28,16.90
2014,07,11,02,29,16.80
2014,07,11,02,30,16.80
2014,07,11,02,31,16.80
2014,07,11,02,32,16.70
2014,07,11,02,33,16.70
2014,07,11,02,34,16.70
2014,07,11,02,35,16.70
2014,07,11,02,36,16.70
2014,07,11,02,37,16.70
2014,07,11,02,38,16.60
2014,07,11,02,39,16.60
2014,07,11,02,40,16.60
2014,07,11,02,41,16.60
2014,07,11,02,42,16.60
2014,07,11,02,43,16.60
2014,07,11,02,44,16.60
2014,07,11,02,45,16.60
2014,07,11,02,46,16.50
2014,07,11,02,47,16.40
2014,07,11,02,48,16.40
2014,07,11,02,49,16.40
2014,07,11,02,50,16.40
2014,07,11,02,51,16.40
2014,07,11,02,52,16.40
2014,07,11,02,53,16.40
2014,07,11,02,54,16.40
2014,07,11,02,55,16.40
2014,07,11,02,56,16.40
2014,07,11,02,57,16.40
2014,07,11,02,58,16.40
2014,07,11,02,59,16.30
2014,07,11,03,00,16.30
2014,07,11,03,01,16.30
2014,07,11,03,02,16.30
2014,07,11,03,03,16.30
2014,07,11,03,04,16.20
2014,07,11,03,05,16.20
2014,07,11,03,06,16.20
2014,07,11,03,07,16.20
2014,07,11,03,08,16.20
2014,07,11,03,09,16.20
2014,07,11,03,10,16.20
2014,07,11,03,11,16.10
2014,07,11,03,12,16.10
2014,07,11,03,13,16.10
2014,07,11,03,14,16.10
2014,07,11,03,15,16.10
2014,07,11,03,16,16.10
2014,07,11,03,17,16.10
2014,07,11,03,18,16.10
2014,07,11,03,19,16.00
2014,07,11,03,20,15.90
2014,07,11,03,21,15.90
2014,07,11,03,22,15.90
2014,07,11,03,23,15.90
2014,07,11,03,24,15.90
2014,07,11,03,25,15.80
2014,07,11,03,26,15.80
2014,07,11,03,27,15.80
2014,07,11,03,28,15.80
2014,07,11,03,29,15.80
2014,07,11,03,30,15.80
2014,07,11,03,31,15.80
2014,07,11,03,32,15.80
2014,07,11,03,33,15.80
2014,07,11,03,34,15.80
2014,07,11,03,35,15.80
2014,07,11,03,36,15.80
2014,07,11,03,37,15.70
2014,07,11,03,38,15.70
2014,07,11,03,39,15.70
2014,07,11,03,40,15.70
2014,07,11,03,41,15.70
2014,07,11,03,42,15.70
2014,07,11,03,43,15.60
2014,07,11,03,44,15.60
2014,07,11,03,45,15.60
2014,07,11,03,46,15.60
2014,07,11,03,47,15.60
2014,07,11,03,48,15.60
2014,07,11,03,49,15.60
2014,07,11,03,50,15.60
2014,07,11,03,51,15.60
2014,07,11,03,52,15.60
2014,07,11,03,53,15.60
2014,07,11,03,54,15.60
2014,07,11,03,55,15.50
2014,07,11,03,56,15.50
2014,07,11,03,57,15.50
2014,07,11,03,58,15.50
2014,07,11,03,59,15.50
2014,07,11,04,00,15.50
2014,07,11,04,01,15.40
2014,07,11,04,02,15.40
2014,07,11,04,03,15.40
2014,07,11,04,04,15.40
2014,07,11,04,05,15.40
2014,07,11,04,06,15.30
2014,07,11,04,07,15.30
2014,07,11,04,08,15.30
2014,07,11,04,09,15.30
2014,07,11,04,10,15.30
2014,07,11,04,11,15.30
2014,07,11,04,12,15.30
2014,07,11,04,13,15.30
2014,07,11,04,14,15.30
2014,07,11,04,15,15.30
2014,07,11,04,16,15.30
2014,07,11,04,17,15.20
2014,07,11,04,18,15.20
2014,07,11,04,19,15.20
2014,07,11,04,20,15.20
2014,07,11,04,21,15.10
2014,07,11,04,22,15.10
2014,07,11,04,23,15.10
2014,07,11,04,24,15.00
2014,07,11,04,25,15.00
2014,07,11,04,26,15.00
2014,07,11,04,27,15.00
2014,07,11,04,28,14.90
2014,07,11,04,29,14.90
2014,07,11,04,30,14.90
2014,07,11,04,31,14.90
2014,07,11,04,32,14.90
2014,07,11,04,33,14.90
2014,07,11,04,34,14.90
2014,07,11,04,35,14.90
2014,07,11,04,36,14.90
2014,07,11,04,37,14.90
2014,07,11,04,38,14.90
2014,07,11,04,39,14.90
2014,07,11,04,40,14.90
2014,07,11,04,41,14.80
2014,07,11,04,42,14.80
2014,07,11,04,43,14.80
2014,07,11,04,44,14.80
2014,07,11,04,45,14.80
2014,07,11,04,46,14.80
2014,07,11,04,47,14.80
2014,07,11,04,48,14.80
2014,07,11,04,49,14.80
2014,07,11,04,50,14.80
2014,07,11,04,51,14.80
2014,07,11,04,52,14.80
2014,07,11,04,53,14.80
2014,07,11,04,54,14.80
2014,07,11,04,55,14.80
2014,07,11,04,56,14.80
2014,07,11,04,57,14.80
2014,07,11,04,58,14.70
2014,07,11,04,59,14.70
2014,07,11,05,00,14.70
2014,07,11,05,01,14.70
2014,07,11,05,02,14.60
2014,07,11,05,03,14.60
2014,07,11,05,04,14.60
2014,07,11,05,05,14.60
2014,07,11,05,06,14.60
2014,07,11,05,07,14.60
2014,07,11,05,08,14.60
2014,07,11,05,09,14.60
2014,07,11,05,10,14.50
2014,07,11,05,11,14.50
2014,07,11,05,12,14.50
2014,07,11,05,13,14.50
2014,07,11,05,14,14.50
2014,07,11,05,15,14.40
2014,07,11,05,16,14.40
2014,07,11,05,17,14.30
2014,07,11,05,18,14.30
2014,07,11,05,19,14.30
2014,07,11,05,20,14.30
2014,07,11,05,21,14.20
2014,07,11,05,22,14.20
2014,07,11,05,23,14.20
2014,07,11,05,24,14.20
2014,07,11,05,25,14.20
2014,07,11,05,26,14.20
2014,07,11,05,27,14.20
2014,07,11,05,28,14.20
2014,07,11,05,29,14.20
2014,07,11,05,30,14.20
2014,07,11,05,31,14.20
2014,07,11,05,32,14.20
2014,07,11,05,33,14.20
2014,07,11,05,34,14.20
2014,07,11,05,35,14.20
2014,07,11,05,36,14.20
2014,07,11,05,37,14.20
2014,07,11,05,38,14.20
2014,07,11,05,39,14.20
2014,07,11,05,40,14.20
2014,07,11,05,41,14.20
2014,07,11,05,42,14.20
2014,07,11,05,43,14.20
2014,07,11,05,44,14.20
2014,07,11,05,45,14.20
2014,07,11,05,46,14.20
2014,07,11,05,47,14.20
2014,07,11,05,48,14.30
2014,07,11,05,49,14.30
2014,07,11,05,50,14.30
2014,07,11,05,51,14.30
2014,07,11,05,52,14.30
2014,07,11,05,53,14.40
2014,07,11,05,54,14.40
2014,07,11,05,55,14.40
2014,07,11,05,56,14.40
2014,07,11,05,57,14.40
2014,07,11,05,58,14.50
2014,07,11,05,59,14.50
2014,07,11,06,00,14.50
2014,07,11,06,01,14.50
2014,07,11,06,02,14.50
2014,07,11,06,03,14.50
2014,07,11,06,04,14.60
2014,07,11,06,05,14.60
2014,07,11,06,06,14.60
2014,07,11,06,07,14.60
2014,07,11,06,08,14.60
2014,07,11,06,09,14.70
2014,07,11,06,10,14.70
2014,07,11,06,11,14.70
2014,07,11,06,12,14.80
2014,07,11,06,13,14.80
2014,07,11,06,14,14.80
2014,07,11,06,15,14.80
2014,07,11,06,16,14.90
2014,07,11,06,17,14.90
2014,07,11,06,18,15.00
2014,07,11,06,19,15.00
2014,07,11,06,20,15.10
2014,07,11,06,21,15.10
2014,07,11,06,22,15.20
2014,07,11,06,23,15.30
2014,07,11,06,24,15.30
2014,07,11,06,25,15.40
2014,07,11,06,26,15.40
2014,07,11,06,27,15.50
2014,07,11,06,28,15.50
2014,07,11,06,29,15.60
2014,07,11,06,30,15.60
2014,07,11,06,31,15.70
2014,07,11,06,32,15.80
2014,07,11,06,33,15.90
2014,07,11,06,34,16.00
2014,07,11,06,35,16.10
2014,07,11,06,36,16.30
2014,07,11,06,37,16.40
2014,07,11,06,38,16.50
2014,07,11,06,39,16.60
2014,07,11,06,40,16.70
2014,07,11,06,41,16.80
2014,07,11,06,42,16.80
2014,07,11,06,43,16.90
2014,07,11,06,44,17.00
2014,07,11,06,45,17.00
2014,07,11,06,46,17.20
2014,07,11,06,47,17.30
2014,07,11,06,48,17.30
2014,07,11,06,49,17.30
2014,07,11,06,50,17.40
2014,07,11,06,51,17.50
2014,07,11,06,52,17.60
2014,07,11,06,53,17.80
2014,07,11,06,54,17.90
2014,07,11,06,55,17.90
2014,07,11,06,56,18.00
2014,07,11,06,57,18.10
2014,07,11,06,58,18.20
2014,07,11,06,59,18.20
2014,07,11,07,00,18.20
2014,07,11,07,01,18.20
2014,07,11,07,02,18.20
2014,07,11,07,03,18.20
2014,07,11,07,04,18.20
2014,07,11,07,05,18.20
2014,07,11,07,06,18.20
2014,07,11,07,07,18.30
2014,07,11,07,08,18.40
2014,07,11,07,09,18.50
2014,07,11,07,10,18.60
2014,07,11,07,11,18.70
2014,07,11,07,12,18.80
2014,07,11,07,13,18.90
2014,07,11,07,14,18.90
2014,07,11,07,15,19.10
2014,07,11,07,16,19.10
2014,07,11,07,17,19.20
2014,07,11,07,18,19.30
2014,07,11,07,19,19.30
2014,07,11,07,20,19.40
2014,07,11,07,21,19.50
2014,07,11,07,22,19.60
2014,07,11,07,23,19.60
2014,07,11,07,24,19.70
2014,07,11,07,25,19.70
2014,07,11,07,26,19.70
2014,07,11,07,27,19.80
2014,07,11,07,28,19.80
2014,07,11,07,29,19.90
2014,07,11,07,30,19.90
2014,07,11,07,31,19.90
2014,07,11,07,32,20.00
2014,07,11,07,33,20.00
2014,07,11,07,34,20.00
2014,07,11,07,35,20.10
2014,07,11,07,36,20.00
2014,07,11,07,37,19.90
2014,07,11,07,38,19.90
2014,07,11,07,39,20.10
2014,07,11,07,40,20.10
2014,07,11,07,41,20.00
2014,07,11,07,42,20.00
2014,07,11,07,43,20.10
2014,07,11,07,44,20.00
2014,07,11,07,45,19.90
2014,07,11,07,46,19.90
2014,07,11,07,47,19.80
2014,07,11,07,48,19.70
2014,07,11,07,49,19.60
2014,07,11,07,50,19.60
2014,07,11,07,51,19.50
2014,07,11,07,52,19.50
2014,07,11,07,53,19.50
2014,07,11,07,54,19.50
2014,07,11,07,55,19.50
2014,07,11,07,56,19.50
2014,07,11,07,57,19.50
2014,07,11,07,58,19.50
2014,07,11,07,59,19.50
2014,07,11,08,00,19.50
2014,07,11,08,01,19.60
2014,07,11,08,02,19.60
2014,07,11,08,03,19.70
2014,07,11,08,04,19.70
2014,07,11,08,05,19.70
2014,07,11,08,06,19.80
2014,07,11,08,07,19.90
2014,07,11,08,08,20.00
2014,07,11,08,09,20.20
2014,07,11,08,10,20.20
2014,07,11,08,11,20.30
2014,07,11,08,12,20.40
2014,07,11,08,13,20.50
2014,07,11,08,14,20.50
2014,07,11,08,15,20.60
2014,07,11,08,16,20.60
2014,07,11,08,17,20.50
2014,07,11,08,18,20.50
2014,07,11,08,19,20.40
2014,07,11,08,20,20.40
2014,07,11,08,21,20.20
2014,07,11,08,22,20.10
2014,07,11,08,23,20.10
2014,07,11,08,24,20.20
2014,07,11,08,25,20.20
2014,07,11,08,26,20.20
2014,07,11,08,27,20.20
2014,07,11,08,28,20.20
2014,07,11,08,29,20.10
2014,07,11,08,30,20.10
2014,07,11,08,31,20.10
2014,07,11,08,32,19.90
2014,07,11,08,33,19.90
2014,07,11,08,34,20.00
2014,07,11,08,35,20.10
2014,07,11,08,36,20.10
2014,07,11,08,37,20.20
2014,07,11,08,38,20.20
2014,07,11,08,39,20.30
2014,07,11,08,40,20.20
2014,07,11,08,41,20.20
2014,07,11,08,42,20.20
2014,07,11,08,43,20.20
2014,07,11,08,44,20.20
2014,07,11,08,45,20.30
2014,07,11,08,46,20.30
2014,07,11,08,47,20.30
2014,07,11,08,48,20.40
2014,07,11,08,49,20.50
2014,07,11,08,50,20.50
2014,07,11,08,51,20.50
2014,07,11,08,52,20.40
2014,07,11,08,53,20.40
2014,07,11,08,54,20.30
2014,07,11,08,55,20.30
2014,07,11,08,56,20.40
2014,07,11,08,57,20.40
2014,07,11,08,58,20.40
2014,07,11,08,59,20.40
2014,07,11,09,00,20.50
2014,07,11,09,01,20.50
2014,07,11,09,02,20.50
2014,07,11,09,03,20.40
2014,07,11,09,04,20.40
2014,07,11,09,05,20.40
2014,07,11,09,06,20.30
2014,07,11,09,07,20.40
2014,07,11,09,08,20.50
2014,07,11,09,09,20.50
2014,07,11,09,10,20.60
2014,07,11,09,11,20.60
2014,07,11,09,12,20.50
2014,07,11,09,13,20.40
2014,07,11,09,14,20.40
2014,07,11,09,15,20.40
2014,07,11,09,16,20.40
2014,07,11,09,17,20.40
2014,07,11,09,18,20.40
2014,07,11,09,19,20.40
2014,07,11,09,20,20.50
2014,07,11,09,21,20.50
2014,07,11,09,22,20.50
2014,07,11,09,23,20.40
2014,07,11,09,24,20.30
2014,07,11,09,25,20.30
2014,07,11,09,26,20.20
2014,07,11,09,27,20.20
2014,07,11,09,28,20.20
2014,07,11,09,29,20.20
2014,07,11,09,30,20.20
2014,07,11,09,31,20.20
2014,07,11,09,32,20.30
2014,07,11,09,33,20.30
2014,07,11,09,34,20.30
2014,07,11,09,35,20.30
2014,07,11,09,36,20.20
2014,07,11,09,37,20.20
2014,07,11,09,38,20.20
2014,07,11,09,39,20.20
2014,07,11,09,40,20.40
2014,07,11,09,41,20.40
2014,07,11,09,42,20.40
2014,07,11,09,43,20.40
2014,07,11,09,44,20.30
2014,07,11,09,45,20.20
2014,07,11,09,46,20.20
2014,07,11,09,47,20.20
2014,07,11,09,48,20.20
2014,07,11,09,49,20.20
2014,07,11,09,50,20.20
2014,07,11,09,51,20.10
2014,07,11,09,52,20.10
2014,07,11,09,53,20.20
2014,07,11,09,54,20.20
2014,07,11,09,55,20.20
2014,07,11,09,56,20.20
2014,07,11,09,57,20.20
2014,07,11,09,58,20.20
2014,07,11,09,59,20.20
2014,07,11,10,00,20.20
2014,07,11,10,01,20.20
2014,07,11,10,02,20.20
2014,07,11,10,03,20.20
2014,07,11,10,04,20.20
2014,07,11,10,05,20.20
2014,07,11,10,06,20.20
2014,07,11,10,07,20.20
2014,07,11,10,08,20.20
2014,07,11,10,09,20.20
2014,07,11,10,10,20.10
2014,07,11,10,11,20.20
2014,07,11,10,12,20.30
2014,07,11,10,13,20.40
2014,07,11,10,14,20.50
2014,07,11,10,15,20.70
2014,07,11,10,16,20.80
2014,07,11,10,17,20.90
2014,07,11,10,18,21.00
2014,07,11,10,19,21.10
2014,07,11,10,20,21.20
2014,07,11,10,21,21.20
2014,07,11,10,22,21.30
2014,07,11,10,23,21.30
2014,07,11,10,24,21.30
2014,07,11,10,25,21.30
2014,07,11,10,26,21.30
2014,07,11,10,27,21.40
2014,07,11,10,28,21.40
2014,07,11,10,29,21.50
2014,07,11,10,30,21.60
2014,07,11,10,31,21.60
2014,07,11,10,32,21.60
2014,07,11,10,33,21.60
2014,07,11,10,34,21.70
2014,07,11,10,35,21.80
2014,07,11,10,36,21.80
2014,07,11,10,37,21.80
2014,07,11,10,38,22.00
2014,07,11,10,39,22.00
2014,07,11,10,40,22.00
2014,07,11,10,41,21.90
2014,07,11,10,42,21.90
2014,07,11,10,43,21.80
2014,07,11,10,44,21.90
2014,07,11,10,45,21.90
2014,07,11,10,46,21.80
2014,07,11,10,47,21.70
2014,07,11,10,48,21.70
2014,07,11,10,49,21.80
2014,07,11,10,50,21.80
2014,07,11,10,51,21.70
2014,07,11,10,52,21.60
2014,07,11,10,53,21.60
2014,07,11,10,54,21.60
2014,07,11,10,55,21.60
2014,07,11,10,56,21.60
2014,07,11,10,57,21.60
2014,07,11,10,58,21.40
2014,07,11,10,59,21.50
2014,07,11,11,00,21.60
2014,07,11,11,01,21.40
2014,07,11,11,02,21.30
2014,07,11,11,03,21.20
2014,07,11,11,04,21.10
2014,07,11,11,05,21.10
2014,07,11,11,06,21.20
2014,07,11,11,07,21.20
2014,07,11,11,08,21.30
2014,07,11,11,09,21.30
2014,07,11,11,10,21.30
2014,07,11,11,11,21.30
2014,07,11,11,12,21.30
2014,07,11,11,13,21.40
2014,07,11,11,14,21.40
2014,07,11,11,15,21.60
2014,07,11,11,16,21.60
2014,07,11,11,17,21.60
2014,07,11,11,18,21.70
2014,07,11,11,19,21.80
2014,07,11,11,20,21.80
2014,07,11,11,21,21.90
2014,07,11,11,22,21.90
2014,07,11,11,23,21.90
2014,07,11,11,24,22.00
2014,07,11,11,25,21.90
2014,07,11,11,26,21.90
2014,07,11,11,27,22.00
2014,07,11,11,28,21.90
2014,07,11,11,29,21.90
2014,07,11,11,30,21.90
2014,07,11,11,31,21.90
2014,07,11,11,32,21.80
2014,07,11,11,33,21.80
2014,07,11,11,34,21.80
2014,07,11,11,35,21.80
2014,07,11,11,36,21.90
2014,07,11,11,37,22.00
2014,07,11,11,38,22.00
2014,07,11,11,39,22.00
2014,07,11,11,40,22.00
2014,07,11,11,41,21.90
2014,07,11,11,42,21.80
2014,07,11,11,43,21.70
2014,07,11,11,44,21.70
2014,07,11,11,45,21.70
2014,07,11,11,46,21.70
2014,07,11,11,47,21.70
2014,07,11,11,48,21.60
2014,07,11,11,49,21.60
2014,07,11,11,50,21.60
2014,07,11,11,51,21.70
2014,07,11,11,52,21.70
2014,07,11,11,53,21.70
2014,07,11,11,54,21.80
2014,07,11,11,55,21.90
2014,07,11,11,56,21.90
2014,07,11,11,57,22.00
2014,07,11,11,58,22.10
2014,07,11,11,59,22.20
2014,07,11,12,00,22.30
2014,07,11,12,01,22.20
2014,07,11,12,02,22.00
2014,07,11,12,03,21.90
2014,07,11,12,04,21.90
2014,07,11,12,05,21.90
2014,07,11,12,06,21.80
2014,07,11,12,07,21.80
2014,07,11,12,08,21.90
2014,07,11,12,09,21.90
2014,07,11,12,10,22.00
2014,07,11,12,11,22.00
2014,07,11,12,12,22.10
2014,07,11,12,13,22.10
2014,07,11,12,14,22.20
2014,07,11,12,15,22.20
2014,07,11,12,16,22.30
2014,07,11,12,17,22.30
2014,07,11,12,18,22.30
2014,07,11,12,19,22.40
2014,07,11,12,20,22.40
2014,07,11,12,21,22.40
2014,07,11,12,22,22.40
2014,07,11,12,23,22.50
2014,07,11,12,24,22.30
2014,07,11,12,25,22.20
2014,07,11,12,26,22.20
2014,07,11,12,27,22.10
2014,07,11,12,28,22.00
2014,07,11,12,29,22.20
2014,07,11,12,30,22.20
2014,07,11,12,31,22.20
2014,07,11,12,32,22.30
2014,07,11,12,33,22.30
2014,07,11,12,34,22.30
2014,07,11,12,35,22.40
2014,07,11,12,36,22.60
2014,07,11,12,37,22.70
2014,07,11,12,38,22.60
2014,07,11,12,39,22.50
2014,07,11,12,40,22.30
2014,07,11,12,41,22.30
2014,07,11,12,42,22.30
2014,07,11,12,43,22.40
2014,07,11,12,44,22.50
2014,07,11,12,45,22.50
2014,07,11,12,46,22.50
2014,07,11,12,47,22.50
2014,07,11,12,48,22.60
2014,07,11,12,49,22.60
2014,07,11,12,50,22.70
2014,07,11,12,51,22.80
2014,07,11,12,52,22.80
2014,07,11,12,53,22.80
2014,07,11,12,54,22.80
2014,07,11,12,55,22.90
2014,07,11,12,56,22.90
2014,07,11,12,57,22.90
2014,07,11,12,58,22.90
2014,07,11,12,59,23.00
2014,07,11,13,00,23.10
2014,07,11,13,01,23.20
2014,07,11,13,02,23.30
2014,07,11,13,03,23.40
2014,07,11,13,04,23.50
2014,07,11,13,05,23.40
2014,07,11,13,06,23.40
2014,07,11,13,07,23.50
2014,07,11,13,08,23.50
2014,07,11,13,09,23.50
2014,07,11,13,10,23.40
2014,07,11,13,11,23.30
2014,07,11,13,12,23.30
2014,07,11,13,13,23.30
2014,07,11,13,14,23.30
2014,07,11,13,15,23.30
2014,07,11,13,16,23.30
2014,07,11,13,17,23.30
2014,07,11,13,18,23.50
2014,07,11,13,19,23.60
2014,07,11,13,20,23.40
2014,07,11,13,21,23.40
2014,07,11,13,22,23.50
2014,07,11,13,23,23.60
2014,07,11,13,24,23.60
2014,07,11,13,25,23.60
2014,07,11,13,26,23.70
2014,07,11,13,27,23.70
2014,07,11,13,28,23.90
2014,07,11,13,29,23.90
2014,07,11,13,30,23.80
2014,07,11,13,31,23.90
2014,07,11,13,32,23.90
2014,07,11,13,33,24.00
2014,07,11,13,34,24.10
2014,07,11,13,35,24.10
2014,07,11,13,36,24.10
2014,07,11,13,37,24.10
2014,07,11,13,38,24.20
2014,07,11,13,39,24.30
2014,07,11,13,40,24.30
2014,07,11,13,41,24.30
2014,07,11,13,42,24.30
2014,07,11,13,43,24.30
2014,07,11,13,44,24.30
2014,07,11,13,45,24.20
2014,07,11,13,46,24.20
2014,07,11,13,47,24.30
2014,07,11,13,48,24.40
2014,07,11,13,49,24.40
2014,07,11,13,50,24.40
2014,07,11,13,51,24.40
2014,07,11,13,52,24.40
2014,07,11,13,53,24.40
2014,07,11,13,54,24.40
2014,07,11,13,55,24.50
2014,07,11,13,56,24.50
2014,07,11,13,57,24.50
2014,07,11,13,58,24.50
2014,07,11,13,59,24.60
2014,07,11,14,00,24.60
2014,07,11,14,01,24.70
2014,07,11,14,02,24.70
2014,07,11,14,03,24.60
2014,07,11,14,04,24.50
2014,07,11,14,05,24.50
2014,07,11,14,06,24.50
2014,07,11,14,07,24.60
2014,07,11,14,08,24.60
2014,07,11,14,09,24.60
2014,07,11,14,10,24.60
2014,07,11,14,11,24.70
2014,07,11,14,12,24.70
2014,07,11,14,13,24.80
2014,07,11,14,14,24.70
2014,07,11,14,15,24.70
2014,07,11,14,16,24.60
2014,07,11,14,17,24.60
2014,07,11,14,18,24.60
2014,07,11,14,19,24.60
2014,07,11,14,20,24.60
2014,07,11,14,21,24.60
2014,07,11,14,22,24.60
2014,07,11,14,23,24.60
2014,07,11,14,24,24.70
2014,07,11,14,25,24.60
2014,07,11,14,26,24.60
2014,07,11,14,27,24.70
2014,07,11,14,28,24.70
2014,07,11,14,29,24.80
2014,07,11,14,30,24.80
2014,07,11,14,31,24.80
2014,07,11,14,32,24.80
2014,07,11,14,33,24.80
2014,07,11,14,34,24.90
2014,07,11,14,35,24.80
2014,07,11,14,36,24.70
2014,07,11,14,37,24.60
2014,07,11,14,38,24.60
2014,07,11,14,39,24.60
2014,07,11,14,40,24.70
2014,07,11,14,41,24.70
2014,07,11,14,42,24.70
2014,07,11,14,43,24.80
2014,07,11,14,44,24.90
2014,07,11,14,45,25.00
2014,07,11,14,46,25.00
2014,07,11,14,47,25.00
2014,07,11,14,48,25.10
2014,07,11,14,49,25.10
2014,07,11,14,50,25.20
2014,07,11,14,51,25.30
2014,07,11,14,52,25.40
2014,07,11,14,53,25.50
2014,07,11,14,54,25.50
2014,07,11,14,55,25.50
2014,07,11,14,56,25.40
2014,07,11,14,57,25.40
2014,07,11,14,58,25.30
2014,07,11,14,59,25.30
2014,07,11,15,00,25.30
2014,07,11,15,01,25.20
2014,07,11,15,02,25.30
2014,07,11,15,03,25.20
2014,07,11,15,04,25.10
2014,07,11,15,05,25.00
2014,07,11,15,06,25.00
2014,07,11,15,07,25.10
2014,07,11,15,08,25.10
2014,07,11,15,09,25.10
2014,07,11,15,10,25.20
2014,07,11,15,11,25.10
2014,07,11,15,12,25.10
2014,07,11,15,13,25.10
2014,07,11,15,14,25.10
2014,07,11,15,15,25.10
2014,07,11,15,16,25.10
2014,07,11,15,17,25.20
2014,07,11,15,18,25.20
2014,07,11,15,19,25.20
2014,07,11,15,20,25.10
2014,07,11,15,21,25.20
2014,07,11,15,22,25.30
2014,07,11,15,23,25.30
2014,07,11,15,24,25.40
2014,07,11,15,25,25.50
2014,07,11,15,26,25.50
2014,07,11,15,27,25.50
2014,07,11,15,28,25.40
2014,07,11,15,29,25.40
2014,07,11,15,30,25.40
2014,07,11,15,31,25.50
2014,07,11,15,32,25.60
2014,07,11,15,33,25.70
2014,07,11,15,34,25.70
2014,07,11,15,35,25.70
2014,07,11,15,36,25.60
2014,07,11,15,37,25.50
2014,07,11,15,38,25.50
2014,07,11,15,39,25.50
2014,07,11,15,40,25.40
2014,07,11,15,41,25.50
2014,07,11,15,42,25.60
2014,07,11,15,43,25.70
2014,07,11,15,44,25.80
2014,07,11,15,45,25.90
2014,07,11,15,46,26.10
2014,07,11,15,47,26.30
2014,07,11,15,48,26.40
2014,07,11,15,49,26.50
2014,07,11,15,50,26.60
2014,07,11,15,51,26.70
2014,07,11,15,52,26.90
2014,07,11,15,53,27.00
2014,07,11,15,54,27.20
2014,07,11,15,55,27.30
2014,07,11,15,56,27.30
2014,07,11,15,57,27.40
2014,07,11,15,58,27.40
2014,07,11,15,59,27.40
2014,07,11,16,00,27.40
2014,07,11,16,01,27.40
2014,07,11,16,02,27.30
2014,07,11,16,03,27.40
2014,07,11,16,04,27.40
2014,07,11,16,05,27.40
2014,07,11,16,06,27.40
2014,07,11,16,07,27.60
2014,07,11,16,08,27.50
2014,07,11,16,09,27.50
2014,07,11,16,10,27.60
2014,07,11,16,11,27.60
2014,07,11,16,12,27.70
2014,07,11,16,13,27.80
2014,07,11,16,14,27.80
2014,07,11,16,15,27.90
2014,07,11,16,16,27.90
2014,07,11,16,17,27.90
2014,07,11,16,18,27.80
2014,07,11,16,19,27.70
2014,07,11,16,20,27.60
2014,07,11,16,21,27.50
2014,07,11,16,22,27.40
2014,07,11,16,23,27.30
2014,07,11,16,24,27.30
2014,07,11,16,25,27.30
2014,07,11,16,26,27.30
2014,07,11,16,27,27.30
2014,07,11,16,28,27.30
2014,07,11,16,29,27.40
2014,07,11,16,30,27.40
2014,07,11,16,31,27.40
2014,07,11,16,32,27.40
2014,07,11,16,33,27.40
2014,07,11,16,34,27.40
2014,07,11,16,35,27.40
2014,07,11,16,36,27.50
2014,07,11,16,37,27.60
2014,07,11,16,38,27.60
2014,07,11,16,39,27.80
2014,07,11,16,40,27.90
2014,07,11,16,41,28.00
2014,07,11,16,42,28.00
2014,07,11,16,43,28.10
2014,07,11,16,44,28.20
2014,07,11,16,45,28.20
2014,07,11,16,46,28.20
2014,07,11,16,47,28.20
2014,07,11,16,48,28.10
2014,07,11,16,49,28.00
2014,07,11,16,50,28.00
2014,07,11,16,51,28.00
2014,07,11,16,52,28.00
2014,07,11,16,53,27.90
2014,07,11,16,54,27.90
2014,07,11,16,55,27.80
2014,07,11,16,56,27.90
2014,07,11,16,57,27.90
2014,07,11,16,58,28.00
2014,07,11,16,59,28.00
2014,07,11,17,00,28.00
2014,07,11,17,01,28.00
2014,07,11,17,02,28.00
2014,07,11,17,03,28.00
2014,07,11,17,04,27.90
2014,07,11,17,05,28.00
2014,07,11,17,06,28.00
2014,07,11,17,07,28.00
2014,07,11,17,08,28.00
2014,07,11,17,09,28.10
2014,07,11,17,10,28.00
2014,07,11,17,11,28.00
2014,07,11,17,12,28.00
2014,07,11,17,13,28.00
2014,07,11,17,14,28.00
2014,07,11,17,15,28.00
2014,07,11,17,16,28.00
2014,07,11,17,17,28.00
2014,07,11,17,18,27.90
2014,07,11,17,19,28.00